Location: Sunny Point
(33.0946°N, 85.0574°W)
Time: 13:41:32
(UTC+00:00)

JUGNU - Visible Passes

Search period start: 12 July 2024 00:00
Search period end: 22 July 2024 00:00
Orbit: 835 x 862 km, 20.0° (Epoch: 11 July)

Date Brightness Start Highest point End Pass type
(mag) Time Alt. Az. Time Alt. Az. Time Alt. Az.
12 Jul ? 09:24:20 17° SSW 09:26:38 22° S 09:31:03 10° SE visible
13 Jul ? 09:09:31 21° SSW 09:10:47 22° S 09:15:15 10° SE visible
14 Jul ? 08:54:45 22° S 08:54:56 22° S 08:59:26 10° SE visible
15 Jul ? 08:40:03 22° SSE 08:40:03 22° SSE 08:43:36 10° SE visible
16 Jul ? 08:25:24 18° SSE 08:25:24 18° SSE 08:27:45 10° SE visible
16 Jul ? 10:07:38 10° SW 10:11:33 18° S 10:15:28 10° SSE visible
17 Jul ? 08:10:51 14° SE 08:10:51 14° SE 08:11:54 10° SE visible
17 Jul ? 09:52:40 12° SW 09:55:42 17° SSW 09:59:28 10° SSE visible
18 Jul ? 09:38:12 15° SSW 09:39:50 16° SSW 09:43:25 10° SSE visible
19 Jul ? 09:23:50 15° SSW 09:23:58 15° SSW 09:27:20 10° SSE visible
20 Jul ? 09:09:34 13° S 09:09:34 13° S 09:11:12 10° SSE visible
